EW3649 Weather Reports


time (UTC)temp
C
wind
direction
speed
KPH
gust
KPH
rain 1hr
cm
rain 24hr
cm
rain mn
cm
humidity
%
barometer
mb
20260504025005 24 10 0.0 8.0 0.00 0.00 0.00 44 1008.6
20260504024004 24 12 0.0 4.8 0.00 0.00 0.00 44 1008.5
20260504023504 24 22 0.0 4.8 0.00 0.00 0.00 44 1008.5
20260504023005 25 25 0.0 3.2 0.00 0.00 0.00 44 1008.5
20260504022504 25 15 0.0 4.8 0.00 0.00 0.00 43 1008.5
20260504022005 25 16 0.0 6.4 0.00 0.00 0.00 43 1008.5
20260504021504 25 16 0.0 6.4 0.00 0.00 0.00 43 1008.6
20260504021005 25 19 0.0 6.4 0.00 0.00 0.00 43 1008.6
20260504020504 25 20 0.0 6.4 0.00 0.00 0.00 42 1008.5
20260504020005 26 14 0.0 8.0 0.00 0.00 0.00 42 1008.6
20260504015504 26 13 0.0 8.0 0.00 0.00 0.00 42 1008.6
20260504015005 26 13 0.0 3.2 0.00 0.00 0.00 41 1008.6
20260504014504 26 17 0.0 3.2 0.00 0.00 0.00 41 1008.7
20260504014005 26 15 0.0 4.8 0.00 0.00 0.00 41 1008.7
20260504013504 26 19 0.0 6.4 0.00 0.00 0.00 41 1008.7
20260504013006 26 20 0.0 6.4 0.00 0.00 0.00 41 1008.7
20260504012504 26 14 0.0 6.4 0.00 0.00 0.00 41 1008.8
20260504011505 26 17 0.0 8.0 0.00 0.00 0.00 41 1008.8
20260504011005 26 23 0.0 8.0 0.00 0.00 0.00 40 1008.9
20260504010504 26 26 0.0 3.2 0.00 0.00 0.00 41 1008.9
20260504005504 26 0 0.0 0.0 0.00 0.00 0.00 41 1008.9
20260504005005 26 0 0.0 0.0 0.00 0.00 0.00 42 1009.0
20260504004504 26 0 0.0 0.0 0.00 0.00 0.00 41 1009.0
20260504004004 26 29 0.0 3.2 0.00 0.00 0.00 41 1009.1
20260504003504 26 17 0.0 3.2 0.00 0.00 0.00 42 1009.1
20260504003004 26 19 0.0 4.8 0.00 0.00 0.00 41 1009.2
20260504002504 26 23 0.0 4.8 0.00 0.00 0.00 41 1009.2
20260504002004 27 27 0.0 4.8 0.00 0.00 0.00 41 1009.3
20260504001004 27 30 0.0 4.8 0.00 0.00 0.00 41 1009.3
20260504000504 27 24 0.0 9.7 0.00 0.00 0.00 41 1009.4
20260504000004 27 18 0.0 11.3 0.00 0.00 0.00 41 1009.4
20260503235504 27 17 0.0 11.3 0.00 0.00 0.00 40 1009.6
20260503235005 27 18 0.0 6.4 0.00 0.00 0.00 40 1009.6
20260503234504 27 15 0.0 4.8 0.00 0.00 0.00 40 1009.6
20260503234006 27 16 0.0 11.3 0.00 0.00 0.00 40 1009.6
20260503233504 27 15 0.0 11.3 0.00 0.00 0.00 40 1009.6
20260503233004 27 12 0.0 12.9 0.00 0.00 0.00 41 1009.7
20260503232005 28 14 0.0 8.0 0.00 0.00 0.00 39 1009.8
20260503231504 27 14 0.0 4.8 0.00 0.00 0.00 40 1009.9
20260503231005 27 19 0.0 9.7 0.00 0.00 0.00 39 1009.9
20260503230505 28 18 0.0 9.7 0.00 0.00 0.00 39 1010.0
20260503230006 28 17 0.0 3.2 0.00 0.00 0.00 38 1010.1
20260503225005 28 9 0.0 4.8 0.00 0.00 0.00 39 1010.2
20260503224504 28 6 0.0 4.8 0.00 0.00 0.00 38 1010.3
20260503224005 28 8 0.0 3.2 0.00 0.00 0.00 39 1010.4
20260503223504 28 21 0.0 14.5 0.00 0.00 0.00 39 1010.4
20260503223004 28 21 0.0 14.5 0.00 0.00 0.00 38 1010.5
20260503222504 28 18 0.0 6.4 0.00 0.00 0.00 39 1010.5
20260503222004 28 19 0.0 11.3 0.00 0.00 0.00 39 1010.6
20260503221505 28 21 0.0 11.3 0.00 0.00 0.00 39 1010.6
20260503221004 28 23 0.0 6.4 0.00 0.00 0.00 38 1010.6
20260503220504 28 23 0.0 6.4 0.00 0.00 0.00 40 1010.6
20260503215503 28 341 0.0 3.2 0.00 0.00 0.00 39 1010.7
20260503214504 27 28 0.0 3.2 0.00 0.00 0.00 41 1010.9
20260503214004 27 26 0.0 3.2 0.00 0.00 0.00 42 1010.9
20260503213006 27 21 0.0 4.8 0.00 0.00 0.00 40 1011.0
20260503212504 27 22 0.0 4.8 0.00 0.00 0.00 42 1011.1
20260503212004 27 20 0.0 4.8 0.00 0.00 0.00 41 1011.1
20260503211504 27 25 0.0 3.2 0.00 0.00 0.00 41 1011.2
20260503211005 27 24 0.0 8.0 0.00 0.00 0.00 44 1011.2
20260503210504 27 19 0.0 8.0 0.00 0.00 0.00 42 1011.3
20260503210005 27 28 0.0 3.2 0.00 0.00 0.00 43 1011.3
20260503205503 26 28 0.0 3.2 0.00 0.00 0.00 43 1011.4
20260503205005 26 80 0.0 4.8 0.00 0.00 0.00 43 1011.4
20260503204504 26 80 0.0 4.8 0.00 0.00 0.00 44 1011.5
20260503204004 26 0 0.0 0.0 0.00 0.00 0.00 44 1011.5
20260503203503 26 0 0.0 0.0 0.00 0.00 0.00 44 1011.5
20260503202504 26 12 0.0 6.4 0.00 0.00 0.00 44 1011.7
20260503201503 26 8 0.0 3.2 0.00 0.00 0.00 45 1011.8
20260503201004 26 7 0.0 3.2 0.00 0.00 0.00 46 1011.9
20260503200504 26 103 0.0 4.8 0.00 0.00 0.00 48 1012.0
20260503200004 26 94 0.0 4.8 0.00 0.00 0.00 47 1012.0
20260503195503 26 14 0.0 8.0 0.00 0.00 0.00 47 1012.1
20260503195005 26 15 0.0 8.0 0.00 0.00 0.00 47 1012.2
20260503194503 26 23 0.0 1.6 0.00 0.00 0.00 48 1012.2
20260503194005 25 13 0.0 6.4 0.00 0.00 0.00 47 1012.3
20260503193505 25 15 0.0 6.4 0.00 0.00 0.00 48 1012.3
20260503192503 25 32 0.0 3.2 0.00 0.00 0.00 48 1012.5
20260503192005 25 41 0.0 1.6 0.00 0.00 0.00 50 1012.6
20260503191504 25 0 0.0 0.0 0.00 0.00 0.00 50 1012.6
20260503191003 25 81 0.0 3.2 0.00 0.00 0.00 50 1012.7
20260503185504 24 0 0.0 0.0 0.00 0.00 0.00 53 1012.8
20260503185004 24 0 0.0 0.0 0.00 0.00 0.00 53 1012.9
20260503184503 24 0 0.0 0.0 0.00 0.00 0.00 53 1012.9
20260503184005 24 0 0.0 0.0 0.00 0.00 0.00 53 1013.0
20260503183503 23 0 0.0 0.0 0.00 0.00 0.00 54 1013.1
20260503182503 23 246 0.0 4.8 0.00 0.00 0.00 52 1013.1
20260503182006 23 0 0.0 0.0 0.00 0.00 0.00 54 1013.1
20260503181505 23 17 0.0 3.2 0.00 0.00 0.00 53 1013.2
20260503181005 23 17 0.0 4.8 0.00 0.00 0.00 52 1013.2
20260503180503 23 17 0.0 4.8 0.00 0.00 0.00 52 1013.3
20260503180005 23 68 0.0 3.2 0.00 0.00 0.00 53 1013.2
20260503175503 23 67 0.0 3.2 0.00 0.00 0.00 53 1013.3
20260503175005 23 68 0.0 3.2 0.00 0.00 0.00 54 1013.4
20260503174505 22 68 0.0 3.2 0.00 0.00 0.00 55 1013.4
20260503174005 22 0 0.0 0.0 0.00 0.00 0.00 55 1013.3
20260503173504 22 19 0.0 1.6 0.00 0.00 0.00 58 1013.3
20260503173005 22 19 0.0 4.8 0.00 0.00 0.00 57 1013.5
20260503172504 22 20 0.0 4.8 0.00 0.00 0.00 58 1013.5
20260503172005 22 17 0.0 1.6 0.00 0.00 0.00 58 1013.5
20260503170503 22 17 0.0 4.8 0.00 0.00 0.00 59 1013.6
20260503151004 15 0 0.0 0.0 0.00 0.00 0.00 82 1013.9
20260503150504 15 0 0.0 0.0 0.00 0.00 0.00 83 1013.8
20260503131005 10 0 0.0 0.0 0.00 0.00 0.00 90 1013.7
20260503130505 10 0 0.0 0.0 0.00 0.00 0.00 90 1013.6
20260503110504 11 0 0.0 0.0 0.00 0.00 0.00 87 1013.9
20260503090503 12 0 0.0 0.0 0.00 0.00 0.00 79 1014.1
20260503081503 13 0 0.0 0.0 0.00 0.00 0.00 76 1014.2
20260503081004 13 0 0.0 0.0 0.00 0.00 0.00 76 1014.2
20260503080503 13 0 0.0 0.0 0.00 0.00 0.00 75 1014.2
20260503072506 14 0 0.0 0.0 0.00 0.00 0.00 71 1014.1
20260503071505 15 0 0.0 0.0 0.00 0.00 0.00 70 1014.1
20260503071007 15 0 0.0 0.0 0.00 0.00 0.00 69 1014.2
20260503070505 15 0 0.0 0.0 0.00 0.00 0.00 69 1014.2
20260503055006 16 0 0.0 0.0 0.00 0.00 0.00 63 1013.8
20260503054505 16 0 0.0 0.0 0.00 0.00 0.00 64 1013.9
20260503054006 16 0 0.0 0.0 0.00 0.00 0.00 63 1013.8
20260503053505 17 0 0.0 0.0 0.00 0.00 0.00 64 1013.8
20260503053007 17 0 0.0 0.0 0.00 0.00 0.00 63 1013.8
20260503052504 17 0 0.0 0.0 0.00 0.00 0.00 62 1013.8
20260503052006 17 0 0.0 0.0 0.00 0.00 0.00 61 1013.7
20260503051505 17 0 0.0 0.0 0.00 0.00 0.00 61 1013.7
20260503051006 17 0 0.0 0.0 0.00 0.00 0.00 61 1013.7
20260503050505 17 0 0.0 0.0 0.00 0.00 0.00 64 1013.6
20260503050006 18 0 0.0 0.0 0.00 0.00 0.00 62 1013.6
20260503045504 18 0 0.0 0.0 0.00 0.00 0.00 63 1013.6
20260503045006 18 0 0.0 0.0 0.00 0.00 0.00 64 1013.6
20260503044505 18 0 0.0 0.0 0.00 0.00 0.00 65 1013.5
20260503044006 18 0 0.0 0.0 0.00 0.00 0.00 65 1013.6
20260503043507 18 0 0.0 0.0 0.00 0.00 0.00 65 1013.5
20260503043006 18 0 0.0 0.0 0.00 0.00 0.00 65 1013.5
20260503042504 18 0 0.0 0.0 0.00 0.00 0.00 64 1013.5
20260503042005 18 0 0.0 0.0 0.00 0.00 0.00 65 1013.4
20260503041505 18 0 0.0 0.0 0.00 0.00 0.00 64 1013.4
20260503041006 18 0 0.0 0.0 0.00 0.00 0.00 64 1013.3
20260503040005 19 0 0.0 0.0 0.00 0.00 0.00 63 1013.2
20260503035505 19 0 0.0 0.0 0.00 0.00 0.00 62 1013.0
20260503035006 20 0 0.0 0.0 0.00 0.00 0.00 61 1012.9
20260503034504 20 0 0.0 0.0 0.00 0.00 0.00 60 1012.9
20260503034006 20 0 0.0 0.0 0.00 0.00 0.00 59 1012.9
20260503033506 20 0 0.0 0.0 0.00 0.00 0.00 59 1012.8
20260503033005 20 13 0.0 1.6 0.00 0.00 0.00 58 1012.7
20260503032504 20 13 0.0 1.6 0.00 0.00 0.00 58 1012.7
20260503032005 20 13 0.0 1.6 0.00 0.00 0.00 57 1012.6
20260503031505 21 16 0.0 1.6 0.00 0.00 0.00 57 1012.6
20260503030505 21 17 0.0 3.2 0.00 0.00 0.00 57 1012.4
20260503030005 21 0 0.0 0.0 0.00 0.00 0.00 57 1012.4
20260503025505 21 15 0.0 3.2 0.00 0.00 0.00 57 1012.3